QPF
0.00 0.00 0.05 0.01 0.01 0.03 0.04 0.06 0.00 0.00 0.00 0.00 0.00 0.00 0.00 0.00 0.00 0.00 0.00 0.00 0.00 0.00 0.06 0.11 0.12 0.06 0.02 0.00 0.00 0.00 0.00 0.00 0.00 0.00 0.00 0.00 0.00 0.00 0.00 0.00 0.00 0.00 0.00 0.00 0.00 0.00 0.00 0.00 0.00
0.00 0.00 0.01 0.01 0.03 0.05 0.01 0.00 0.00 0.00 0.00 0.00 0.00 0.00 0.00 0.00 0.00 0.00 0.01 0.00 0.00 0.00 0.01 0.01 0.04 0.05 0.00 0.00 0.00 0.00 0.00 0.00 0.00 0.00 0.00 0.00 0.00 0.00 0.00 0.00 0.00 0.00 0.00 0.00 0.00 0.00 0.00 0.00 0.00
0.00 0.02 0.17 0.04 0.01 0.01 0.00 0.00 0.01 0.01 0.00 0.00 0.00 0.00 0.00 0.00 0.00 0.00 0.00 0.00 0.00 0.00 0.00 0.00 0.00 0.01 0.00 0.00 0.00 0.00 0.00 0.00 0.00 0.00 0.00 0.00 0.00 0.00 0.00 0.00 0.00 0.00 0.00 0.00 0.00 0.00 0.00 0.00 0.00
0.06 0.56 1.40 0.28 0.05 0.00 0.00 0.01 0.02 0.00 0.00 0.00 0.00 0.00 0.00 0.00 0.00 0.00 0.00 0.00 0.00 0.00 0.00 0.00 0.00 0.00 0.00 0.00 0.00 0.00 0.00 0.00 0.00 0.00 0.00 0.00 0.00 0.00 0.00 0.00 0.00 0.00 0.00 0.00 0.00 0.00 0.00 0.00 0.00
0.03 0.15 0.40 0.41 0.04 0.01 0.00 0.01 0.04 0.00 0.00 0.00 0.00 0.00 0.00 0.00 0.00 0.00 0.00 0.00 0.00 0.00 0.00 0.00 0.00 0.00 0.00 0.00 0.00 0.00 0.00 0.00 0.00 0.00 0.00 0.00 0.00 0.00 0.00 0.00 0.00 0.00 0.00 0.00 0.00 0.00 0.00 0.00 0.00
0.00 0.01 0.04 0.02 0.03 0.01 0.01 0.00 0.00 0.00 0.00 0.00 0.00 0.00 0.00 0.00 0.00 0.00 0.00 0.00 0.00 0.00 0.00 0.00 0.00 0.00 0.00 0.00 0.00 0.00 0.00 0.00 0.00 0.00 0.00 0.00 0.00 0.00 0.00 0.00 0.00 0.00 0.00 0.00 0.00 0.00 0.00 0.00 0.01
0.01 0.00 0.01 0.00 0.03 0.02 0.02 0.00 0.00 0.00 0.00 0.00 0.00 0.00 0.00 0.00 0.00 0.00 0.00 0.00 0.00 0.00 0.00 0.00 0.00 0.00 0.00 0.00 0.00 0.00 0.00 0.00 0.00 0.00 0.00 0.00 0.00 0.00 0.00 0.00 0.00 0.00 0.00 0.00 0.00 0.00 0.00 0.01 0.04
0.00 0.00 0.00 0.00 0.01 0.02 0.00 0.00 0.00 0.00 0.00 0.00 0.00 0.00 0.00 0.00 0.00 0.00 0.00 0.00 0.00 0.00 0.00 0.00 0.00 0.00 0.00 0.00 0.00 0.00 0.00 0.00 0.00 0.00 0.00 0.00 0.00 0.00 0.00 0.00 0.00 0.00 0.00 0.00 0.00 0.00 0.00 0.01 0.03
0.00 0.00 0.00 0.00 0.00 0.00 0.00 0.00 0.00 0.00 0.00 0.00 0.00 0.00 0.00 0.00 0.00 0.00 0.00 0.00 0.00 0.00 0.00 0.00 0.00 0.00 0.00 0.00 0.00 0.00 0.00 0.00 0.00 0.00 0.00 0.00 0.00 0.00 0.00 0.00 0.00 0.00 0.00 0.00 0.00 0.00 0.01 0.05 0.08
0.00 0.00 0.00 0.00 0.00 0.00 0.00 0.00 0.00 0.00 0.00 0.00 0.00 0.00 0.00 0.00 0.00 0.00 0.00 0.00 0.00 0.00 0.00 0.00 0.00 0.00 0.00 0.00 0.00 0.00 0.00 0.00 0.00 0.00 0.00 0.00 0.00 0.00 0.00 0.00 0.01 0.00 0.00 0.00 0.01 0.02 0.00 0.01 0.03
0.00 0.00 0.00 0.00 0.00 0.00 0.00 0.00 0.00 0.00 0.00 0.00 0.00 0.00 0.00 0.00 0.00 0.00 0.00 0.00 0.00 0.00 0.00 0.00 0.00 0.00 0.00 0.00 0.00 0.00 0.00 0.00 0.00 0.00 0.00 0.00 0.00 0.00 0.00 0.01 0.00 0.01 0.00 0.02 0.01 0.01 0.00 0.01 0.00
0.00 0.00 0.00 0.00 0.00 0.00 0.00 0.00 0.00 0.00 0.00 0.00 0.00 0.00 0.00 0.00 0.00 0.00 0.00 0.00 0.00 0.00 0.00 0.00 0.00 0.00 0.00 0.00 0.00 0.00 0.00 0.00 0.00 0.00 0.00 0.00 0.00 0.00 0.00 0.02 0.02 0.01 0.00 0.00 0.00 0.00 0.01 0.01 0.00
0.00 0.00 0.00 0.00 0.00 0.00 0.00 0.00 0.00 0.00 0.00 0.00 0.00 0.00 0.00 0.00 0.00 0.00 0.00 0.00 0.00 0.00 0.00 0.00 0.00 0.00 0.00 0.00 0.00 0.00 0.00 0.00 0.00 0.00 0.00 0.00 0.00 0.00 0.00 0.00 0.00 0.01 0.00 0.00 0.00 0.00 0.00 0.00 0.00
0.00 0.00 0.00 0.00 0.00 0.00 0.00 0.00 0.00 0.00 0.00 0.00 0.00 0.00 0.00 0.00 0.00 0.00 0.00 0.00 0.00 0.00 0.00 0.00 0.00 0.00 0.00 0.00 0.00 0.00 0.00 0.00 0.00 0.00 0.00 0.00 0.01 0.01 0.00 0.00 0.00 0.01 0.01 0.02 0.02 0.00 0.00 0.00 0.00
0.00 0.00 0.00 0.00 0.00 0.00 0.00 0.01 0.00 0.00 0.00 0.00 0.00 0.00 0.00 0.00 0.00 0.00 0.00 0.00 0.00 0.00 0.00 0.00 0.00 0.00 0.00 0.00 0.00 0.00 0.00 0.00 0.00 0.00 0.00 0.00 0.00 0.00 0.00 0.00 0.00 0.01 0.01 0.02 0.02 0.00 0.00 0.00 0.00
0.00 0.00 0.00 0.00 0.00 0.00 0.00 0.00 0.00 0.00 0.00 0.00 0.00 0.00 0.00 0.00 0.00 0.00 0.00 0.00 0.00 0.00 0.00 0.00 0.00 0.00 0.00 0.00 0.00 0.00 0.00 0.00 0.00 0.00 0.00 0.00 0.00 0.00 0.00 0.00 0.00 0.00 0.00 0.00 0.00 0.00 0.00 0.00 0.00
0.00 0.00 0.00 0.00 0.00 0.00 0.00 0.00 0.00 0.00 0.00 0.00 0.00 0.00 0.00 0.00 0.00 0.00 0.00 0.00 0.00 0.00 0.00 0.00 0.00 0.00 0.00 0.00 0.00 0.00 0.00 0.00 0.00 0.00 0.00 0.00 0.00 0.00 0.00 0.00 0.00 0.00 0.00 0.00 0.00 0.00 0.00 0.00 0.00
0.00 0.00 0.00 0.00 0.00 0.00 0.00 0.00 0.00 0.00 0.00 0.00 0.00 0.00 0.00 0.00 0.00 0.00 0.00 0.00 0.00 0.00 0.00 0.00 0.00 0.00 0.00 0.00 0.00 0.00 0.00 0.00 0.00 0.00 0.00 0.00 0.00 0.00 0.00 0.00 0.00 0.00 0.00 0.00 0.00 0.00 0.00 0.00 0.00
0.00 0.00 0.00 0.00 0.00 0.00 0.00 0.00 0.00 0.00 0.00 0.00 0.00 0.00 0.00 0.00 0.00 0.00 0.00 0.00 0.00 0.00 0.00 0.00 0.00 0.00 0.00 0.00 0.00 0.00 0.00 0.00 0.00 0.00 0.00 0.00 0.00 0.00 0.00 0.00 0.00 0.00 0.00 0.00 0.00 0.00 0.00 0.00 0.00
0.00 0.00 0.00 0.00 0.00 0.00 0.00 0.00 0.00 0.00 0.00 0.00 0.00 0.00 0.00 0.00 0.00 0.00 0.00 0.00 0.00 0.00 0.00 0.00 0.00 0.00 0.00 0.00 0.00 0.00 0.00 0.00 0.00 0.00 0.00 0.00 0.00 0.00 0.00 0.00 0.00 0.00 0.00 0.00 0.00 0.00 0.00 0.00 0.00
0.00 0.00 0.00 0.00 0.00 0.00 0.00 0.00 0.00 0.00 0.00 0.00 0.00 0.00 0.00 0.00 0.00 0.00 0.00 0.00 0.00 0.00 0.00 0.00 0.00 0.00 0.00 0.00 0.00 0.00 0.00 0.00 0.00 0.00 0.00 0.00 0.00 0.00 0.00 0.00 0.00 0.00 0.00 0.00 0.00 0.00 0.00 0.00 0.00
0.00 0.00 0.00 0.00 0.00 0.00 0.00 0.00 0.00 0.00 0.00 0.00 0.00 0.00 0.00 0.00 0.00 0.00 0.00 0.00 0.00 0.00 0.00 0.00 0.00 0.00 0.00 0.00 0.00 0.00 0.00 0.00 0.00 0.00 0.00 0.00 0.00 0.00 0.00 0.00 0.00 0.00 0.00 0.00 0.00 0.00 0.00 0.00 0.00
0.00 0.00 0.00 0.00 0.00 0.00 0.00 0.00 0.00 0.00 0.00 0.00 0.00 0.00 0.00 0.00 0.00 0.00 0.00 0.00 0.00 0.00 0.00 0.00 0.00 0.00 0.00 0.00 0.00 0.00 0.00 0.00 0.00 0.00 0.00 0.00 0.00 0.00 0.00 0.00 0.00 0.00 0.00 0.00 0.00 0.00 0.00 0.00 0.00
0.00 0.00 0.00 0.00 0.00 0.00 0.00 0.00 0.00 0.00 0.00 0.00 0.00 0.00 0.00 0.00 0.00 0.00 0.00 0.00 0.00 0.00 0.00 0.00 0.00 0.00 0.00 0.00 0.00 0.00 0.00 0.00 0.00 0.00 0.00 0.00 0.00 0.00 0.00 0.00 0.00 0.00 0.00 0.00 0.00 0.00 0.00 0.00 0.00
0.00 0.00 0.00 0.00 0.00 0.00 0.00 0.00 0.00 0.00 0.00 0.00 0.00 0.00 0.00 0.00 0.00 0.00 0.00 0.00 0.00 0.00 0.00 0.00 0.00 0.00 0.00 0.00 0.00 0.00 0.00 0.00 0.00 0.00 0.00 0.00 0.00 0.00 0.00 0.00 0.00 0.00 0.00 0.00 0.00 0.00 0.00 0.00 0.00
0.00 0.00 0.00 0.00 0.00 0.00 0.00 0.00 0.00 0.00 0.00 0.00 0.00 0.00 0.00 0.00 0.00 0.00 0.00 0.00 0.00 0.00 0.00 0.00 0.00 0.00 0.00 0.00 0.00 0.00 0.00 0.00 0.00 0.00 0.00 0.00 0.00 0.00 0.00 0.00 0.00 0.00 0.00 0.00 0.00 0.00 0.00 0.00 0.00
0.00 0.00 0.00 0.00 0.00 0.00 0.00 0.00 0.00 0.00 0.00 0.00 0.00 0.00 0.00 0.00 0.00 0.00 0.00 0.00 0.00 0.00 0.00 0.00 0.00 0.00 0.00 0.00 0.00 0.00 0.00 0.00 0.00 0.00 0.00 0.00 0.00 0.00 0.00 0.00 0.00 0.00 0.00 0.00 0.00 0.00 0.00 0.00 0.00
0.00 0.00 0.00 0.00 0.00 0.00 0.00 0.00 0.00 0.00 0.00 0.00 0.00 0.00 0.00 0.00 0.00 0.00 0.00 0.00 0.00 0.00 0.00 0.00 0.00 0.00 0.00 0.00 0.00 0.00 0.00 0.00 0.00 0.00 0.00 0.00 0.00 0.00 0.00 0.00 0.00 0.00 0.00 0.00 0.00 0.00 0.00 0.00 0.00
0.00 0.00 0.00 0.00 0.00 0.00 0.00 0.00 0.00 0.00 0.00 0.00 0.00 0.00 0.00 0.00 0.00 0.00 0.00 0.00 0.00 0.00 0.00 0.00 0.00 0.00 0.00 0.00 0.00 0.00 0.00 0.00 0.00 0.00 0.00 0.00 0.00 0.00 0.00 0.00 0.00 0.00 0.00 0.00 0.00 0.00 0.00 0.00 0.00
0.00 0.00 0.00 0.00 0.00 0.00 0.00 0.00 0.00 0.00 0.00 0.00 0.00 0.00 0.00 0.00 0.00 0.00 0.00 0.00 0.00 0.00 0.00 0.00 0.00 0.00 0.00 0.00 0.00 0.00 0.00 0.00 0.00 0.00 0.00 0.00 0.00 0.00 0.00 0.00 0.00 0.00 0.00 0.00 0.00 0.00 0.00 0.00 0.00
MSLP
1011.61 1011.94 1012.24 1012.56 1013.18 1012.13 1011.16 1009.86 1008.93 1008.35 1008.29 1008.48 1008.33 1009.05 1010.49 1011.31 1011.97 1013.90 1014.30 1014.68 1014.88 1015.27 1015.35 1015.44 1015.57 1015.61 1015.80 1016.04 1016.20 1016.33 1016.46 1016.60 1016.69 1016.87 1017.13 1017.25 1017.31 1017.48 1017.54 1017.60 1017.59 1017.54 1017.53 1017.53 1017.62 1017.70 1017.78 1017.70 1017.57
1011.59 1012.13 1012.27 1012.49 1012.57 1011.43 1010.32 1009.48 1008.83 1008.12 1008.27 1008.40 1008.67 1009.49 1010.32 1011.80 1012.41 1013.72 1014.38 1014.77 1014.90 1015.38 1015.58 1015.71 1015.87 1015.95 1016.01 1016.24 1016.42 1016.63 1016.80 1016.92 1017.03 1017.16 1017.41 1017.51 1017.55 1017.63 1017.66 1017.71 1017.74 1017.79 1017.81 1017.78 1017.79 1017.84 1017.84 1017.73 1017.65
1011.59 1011.71 1012.66 1012.93 1011.57 1010.49 1009.58 1009.22 1008.59 1008.50 1008.43 1008.27 1008.85 1009.64 1010.93 1012.35 1013.03 1013.70 1014.06 1014.62 1014.99 1015.41 1015.69 1015.78 1015.88 1016.05 1016.22 1016.43 1016.69 1016.94 1017.07 1017.20 1017.27 1017.43 1017.63 1017.66 1017.72 1017.85 1017.91 1017.95 1017.98 1018.00 1017.94 1017.93 1017.93 1017.93 1017.83 1017.77 1017.80
1011.66 1012.72 1012.79 1012.55 1010.60 1009.49 1008.60 1008.81 1008.72 1008.57 1008.60 1008.67 1009.04 1010.39 1011.63 1012.07 1012.65 1013.15 1013.92 1014.29 1015.07 1015.40 1015.68 1015.79 1015.97 1016.16 1016.36 1016.66 1016.91 1017.10 1017.23 1017.39 1017.51 1017.66 1017.80 1017.85 1017.95 1017.99 1017.99 1018.00 1018.07 1018.11 1018.13 1018.11 1018.05 1018.02 1017.94 1017.99 1018.00
1011.53 1012.43 1011.98 1011.60 1009.91 1008.51 1008.48 1007.87 1008.00 1008.46 1008.59 1009.29 1009.42 1010.92 1011.71 1012.54 1012.79 1013.61 1014.13 1014.60 1015.07 1015.53 1015.72 1015.87 1016.04 1016.33 1016.51 1016.82 1017.05 1017.22 1017.36 1017.54 1017.72 1017.85 1017.94 1018.01 1018.04 1018.08 1018.09 1018.09 1018.11 1018.17 1018.23 1018.26 1018.19 1018.11 1018.13 1018.15 1018.22
1011.27 1011.65 1011.66 1010.71 1009.08 1008.29 1008.08 1007.54 1007.61 1008.41 1009.04 1009.85 1010.38 1011.02 1012.53 1012.87 1013.17 1013.61 1014.17 1014.70 1014.96 1015.50 1015.74 1015.95 1016.14 1016.40 1016.64 1016.86 1017.13 1017.29 1017.46 1017.76 1017.85 1017.90 1018.00 1018.03 1018.08 1018.08 1018.10 1018.15 1018.20 1018.23 1018.27 1018.32 1018.35 1018.32 1018.27 1018.31 1018.35
1010.57 1010.87 1010.39 1009.74 1008.30 1008.32 1007.83 1007.37 1007.44 1008.15 1008.75 1009.55 1009.86 1011.36 1012.98 1013.23 1013.24 1013.48 1014.18 1014.71 1015.01 1015.39 1015.80 1015.99 1016.18 1016.50 1016.69 1016.91 1017.16 1017.34 1017.61 1017.85 1017.83 1017.94 1018.04 1018.03 1018.11 1018.14 1018.16 1018.17 1018.21 1018.21 1018.28 1018.37 1018.36 1018.30 1018.34 1018.39 1018.32
1010.11 1010.07 1009.58 1008.04 1007.49 1007.08 1007.27 1007.07 1007.20 1007.42 1008.66 1009.54 1009.70 1011.01 1012.14 1012.46 1012.83 1013.37 1014.19 1014.75 1015.17 1015.53 1015.81 1016.07 1016.33 1016.52 1016.74 1017.00 1017.23 1017.45 1017.70 1017.71 1017.78 1017.90 1018.01 1018.05 1017.96 1018.01 1018.02 1018.14 1018.24 1018.25 1018.34 1018.39 1018.36 1018.21 1018.29 1018.30 1018.34
1009.84 1009.29 1008.00 1006.69 1005.96 1006.02 1006.63 1006.70 1007.55 1007.63 1008.31 1009.34 1009.29 1009.82 1011.08 1011.84 1012.49 1013.34 1014.26 1014.90 1015.31 1015.68 1015.89 1016.05 1016.36 1016.62 1016.85 1017.08 1017.29 1017.46 1017.58 1017.61 1017.67 1017.76 1017.90 1017.92 1018.15 1018.11 1017.99 1018.06 1018.11 1018.18 1018.27 1018.33 1018.32 1018.15 1018.09 1018.22 1018.22
1009.23 1008.81 1007.02 1004.85 1004.50 1004.89 1004.89 1005.74 1006.36 1007.73 1008.86 1009.26 1009.58 1010.66 1011.27 1011.81 1012.36 1013.06 1013.79 1014.51 1015.09 1015.50 1015.84 1015.98 1016.24 1016.55 1016.84 1016.98 1017.22 1017.41 1017.46 1017.48 1017.53 1017.62 1017.80 1017.92 1018.09 1018.14 1018.06 1017.98 1018.00 1018.05 1018.14 1018.23 1018.28 1018.17 1017.96 1017.95 1018.32
1008.14 1007.04 1006.00 1004.45 1004.21 1004.12 1004.75 1005.55 1005.90 1007.09 1008.27 1007.96 1009.13 1010.17 1011.02 1011.62 1012.18 1012.72 1013.31 1013.85 1014.46 1014.87 1015.41 1015.68 1016.02 1016.32 1016.64 1016.80 1017.15 1017.38 1017.39 1017.36 1017.32 1017.48 1017.53 1017.87 1017.95 1017.99 1018.01 1018.22 1018.17 1018.27 1018.13 1018.38 1018.28 1018.30 1018.16 1018.03 1018.13
1006.67 1005.58 1005.20 1003.68 1003.24 1003.77 1004.42 1004.96 1005.59 1005.63 1006.26 1007.36 1008.07 1008.86 1010.10 1011.21 1011.80 1012.32 1012.96 1013.48 1014.08 1014.55 1014.80 1015.25 1015.51 1015.97 1016.38 1016.65 1016.81 1016.91 1017.09 1017.17 1017.19 1017.27 1017.54 1017.77 1017.99 1018.02 1018.03 1018.20 1018.06 1018.23 1018.09 1018.08 1018.17 1018.30 1018.12 1018.09 1018.06
1004.85 1004.55 1004.10 1003.37 1002.64 1002.73 1003.69 1004.20 1004.85 1005.68 1005.99 1007.65 1008.61 1009.37 1009.97 1010.68 1011.22 1011.76 1012.08 1012.88 1013.42 1013.88 1014.27 1014.82 1015.29 1015.66 1015.84 1016.22 1016.47 1016.73 1016.76 1016.85 1016.90 1016.94 1017.26 1017.46 1017.69 1017.84 1017.97 1017.73 1017.84 1018.08 1017.97 1018.11 1018.02 1018.01 1018.13 1018.17 1018.04
1003.68 1003.35 1002.99 1002.85 1002.33 1002.66 1003.20 1004.00 1004.38 1005.47 1005.96 1007.43 1008.34 1009.08 1009.73 1010.29 1010.75 1011.38 1012.03 1012.42 1012.77 1013.14 1013.57 1014.11 1014.75 1014.98 1015.36 1015.87 1016.16 1016.21 1016.38 1016.44 1016.49 1016.51 1016.69 1017.17 1017.48 1017.55 1017.70 1017.67 1017.58 1017.73 1017.79 1017.98 1017.99 1018.06 1018.12 1018.08 1017.90
1003.34 1003.22 1002.12 1001.33 1001.07 1002.02 1002.85 1004.00 1004.52 1005.01 1005.89 1007.02 1008.00 1008.71 1009.12 1009.76 1010.44 1010.78 1011.12 1011.65 1012.03 1012.45 1012.87 1013.56 1014.13 1014.61 1015.12 1015.44 1015.58 1015.73 1015.73 1016.00 1016.15 1016.20 1016.44 1016.68 1016.96 1017.10 1017.19 1017.29 1017.38 1017.55 1017.62 1017.75 1017.92 1017.92 1018.03 1017.97 1017.92
1003.49 1003.14 1002.46 1001.21 1001.50 1001.92 1002.31 1004.40 1004.69 1004.59 1005.82 1006.87 1007.63 1008.30 1008.75 1009.11 1009.57 1010.14 1010.36 1010.91 1011.43 1012.02 1012.60 1013.21 1013.78 1014.29 1014.68 1015.03 1015.13 1015.44 1015.38 1015.64 1015.89 1015.94 1016.19 1016.52 1016.77 1016.84 1017.02 1017.26 1017.38 1017.38 1017.55 1017.70 1018.03 1018.15 1018.25 1018.17 1018.05
1004.11 1003.62 1002.91 1001.45 1001.81 1002.39 1003.02 1004.29 1004.32 1004.84 1005.47 1006.49 1006.91 1007.36 1007.88 1008.42 1008.94 1009.32 1009.74 1010.24 1010.89 1011.40 1012.09 1012.78 1013.27 1013.78 1014.20 1014.54 1014.68 1014.88 1015.10 1015.61 1015.65 1015.74 1015.98 1016.26 1016.52 1016.60 1016.92 1017.20 1017.28 1017.37 1017.65 1017.74 1017.97 1018.17 1018.27 1018.43 1018.41
1004.26 1003.85 1002.91 1002.18 1001.56 1002.40 1002.68 1003.32 1003.84 1004.60 1005.17 1005.81 1006.18 1006.68 1007.05 1007.16 1007.38 1008.26 1008.82 1009.58 1010.28 1010.84 1011.49 1012.09 1012.67 1013.15 1013.86 1014.22 1014.67 1014.68 1014.98 1015.17 1015.35 1015.66 1015.68 1015.78 1016.10 1016.42 1016.70 1016.91 1016.97 1017.28 1017.70 1017.93 1018.13 1018.30 1018.42 1018.51 1018.44
1003.92 1003.67 1003.18 1001.62 1001.68 1002.28 1002.17 1002.53 1002.89 1003.74 1004.94 1005.49 1005.78 1006.19 1006.52 1006.48 1006.52 1007.39 1008.38 1009.06 1009.95 1010.47 1011.03 1011.63 1012.27 1012.80 1013.49 1014.08 1014.57 1014.89 1015.10 1015.13 1015.47 1015.49 1015.48 1015.59 1015.85 1016.07 1016.34 1016.74 1016.92 1017.11 1017.54 1017.82 1018.18 1018.37 1018.52 1018.53 1018.54
1003.49 1003.30 1002.50 1002.02 1001.78 1002.44 1002.35 1002.24 1002.57 1003.12 1003.37 1003.79 1004.73 1005.43 1005.72 1006.10 1006.42 1006.78 1007.49 1008.14 1008.98 1009.60 1010.36 1011.01 1011.60 1012.24 1012.89 1013.40 1013.83 1014.26 1014.59 1014.79 1014.79 1014.98 1015.24 1015.26 1015.50 1015.78 1016.09 1016.51 1016.86 1017.09 1017.49 1017.80 1018.06 1018.17 1018.62 1018.67 1018.49
1002.76 1002.69 1001.96 1002.45 1001.98 1002.26 1002.60 1003.02 1003.12 1003.51 1003.74 1003.79 1003.94 1003.96 1004.59 1004.85 1005.37 1005.93 1006.63 1007.39 1007.99 1008.82 1009.46 1010.06 1010.70 1011.43 1012.18 1012.81 1013.49 1014.13 1014.47 1014.71 1014.90 1014.98 1015.03 1014.89 1014.97 1015.37 1015.77 1016.21 1016.49 1016.90 1017.14 1017.51 1017.81 1018.07 1018.42 1018.81 1018.73
1002.07 1001.63 1001.84 1002.41 1002.84 1002.78 1002.62 1003.11 1002.96 1002.86 1003.16 1003.08 1003.09 1003.51 1003.59 1004.02 1004.47 1004.81 1005.50 1006.28 1006.93 1007.62 1008.54 1009.33 1010.12 1010.74 1011.36 1012.07 1012.82 1013.50 1013.90 1014.41 1014.45 1014.50 1014.62 1014.71 1014.71 1015.13 1015.42 1015.89 1016.13 1016.38 1016.81 1017.32 1017.67 1018.04 1018.21 1018.40 1018.69
1000.89 1001.68 1001.81 1002.33 1002.84 1003.24 1002.85 1003.16 1001.93 1001.93 1002.34 1002.17 1002.08 1001.99 1002.38 1002.81 1003.48 1003.95 1004.32 1004.81 1005.61 1006.67 1007.62 1008.40 1009.11 1009.92 1010.48 1011.22 1011.86 1012.64 1013.28 1013.62 1013.80 1014.09 1014.39 1014.69 1014.84 1014.93 1015.14 1015.58 1015.91 1016.32 1016.65 1017.16 1017.58 1017.96 1018.15 1018.30 1018.67
1000.71 1001.46 1001.75 1002.17 1002.76 1002.79 1002.33 1002.32 1001.35 1000.84 1000.09 1000.25 1000.43 1000.55 1000.91 1001.73 1002.29 1002.80 1003.00 1003.82 1004.73 1005.67 1006.65 1007.62 1008.47 1009.17 1009.74 1010.45 1011.12 1011.73 1012.43 1013.06 1013.59 1013.85 1014.25 1014.40 1014.58 1014.78 1014.85 1015.28 1015.60 1016.01 1016.64 1017.07 1017.34 1017.71 1017.89 1018.10 1018.34
1000.22 1001.53 1002.34 1002.53 1002.50 1001.54 1001.53 1001.51 999.78 998.68 998.26 998.06 998.49 998.87 999.47 1000.16 1000.94 1001.73 1002.52 1003.34 1004.01 1004.81 1005.76 1006.83 1007.75 1008.51 1009.18 1009.68 1010.35 1011.00 1011.61 1012.29 1012.72 1013.26 1013.72 1014.09 1014.24 1014.58 1014.76 1015.11 1015.58 1015.95 1016.25 1016.52 1016.86 1017.30 1017.78 1018.08 1018.34
999.42 1000.41 1001.22 1002.37 1002.25 1001.93 1000.90 1000.07 997.98 997.28 996.66 996.47 996.41 996.85 998.08 999.15 999.59 1000.15 1000.89 1001.55 1002.49 1003.59 1004.67 1005.71 1006.80 1007.73 1008.50 1009.15 1009.68 1010.31 1010.93 1011.42 1011.96 1012.55 1013.02 1013.28 1013.46 1013.72 1014.12 1014.65 1015.04 1015.33 1015.78 1016.18 1016.63 1017.26 1017.61 1017.95 1018.23
998.28 999.16 1000.06 1001.45 1001.90 1001.69 999.97 998.53 997.03 996.45 996.27 995.88 996.08 996.69 997.05 997.76 998.41 998.50 999.47 1000.44 1001.26 1002.47 1003.37 1004.31 1005.61 1006.63 1007.50 1008.18 1008.87 1009.56 1010.22 1010.73 1011.25 1011.89 1012.23 1012.61 1012.80 1013.15 1013.68 1014.20 1014.71 1015.12 1015.41 1015.88 1016.55 1017.08 1017.59 1017.92 1018.05
996.81 997.96 999.51 1000.25 1000.77 1000.81 999.42 998.12 996.17 995.95 995.54 995.23 995.11 995.32 995.63 996.25 996.63 996.90 998.00 999.13 1000.18 1001.00 1002.17 1003.44 1004.34 1005.18 1006.18 1007.12 1007.77 1008.58 1009.33 1009.96 1010.58 1011.21 1011.64 1012.00 1012.30 1012.78 1013.31 1013.82 1014.30 1014.81 1015.32 1015.68 1016.20 1016.67 1016.96 1017.20 1017.35
996.14 996.81 997.84 998.61 999.34 999.43 998.95 995.78 995.27 995.12 995.11 994.95 994.35 993.66 994.09 994.48 995.06 996.03 996.79 997.85 998.75 999.99 1001.55 1002.54 1003.78 1004.71 1005.53 1006.34 1006.98 1007.76 1008.57 1009.33 1009.92 1010.32 1010.81 1011.27 1011.80 1012.25 1012.72 1013.27 1013.82 1014.46 1014.88 1015.30 1015.71 1016.07 1016.38 1016.94 1017.20
994.67 995.42 996.64 997.71 998.36 998.08 997.06 992.75 994.01 994.16 994.37 993.99 993.37 993.44 993.15 993.22 994.40 995.21 995.84 997.15 998.36 999.38 1000.59 1001.50 1002.72 1003.77 1004.51 1005.33 1006.22 1006.88 1007.68 1008.52 1009.11 1009.40 1009.93 1010.40 1010.92 1011.46 1011.93 1012.55 1013.17 1013.75 1014.24 1014.69 1015.25 1015.62 1015.94 1016.13 1016.60
Thickness
5791 5787 5785 5777 5751 5756 5752 5768 5788 5788 5789 5801 5810 5797 5781 5782 5775 5752 5775 5773 5771 5768 5767 5767 5766 5766 5764 5763 5761 5760 5760 5759 5758 5757 5753 5752 5752 5751 5751 5750 5751 5751 5750 5749 5749 5748 5748 5749 5750
5792 5788 5780 5765 5746 5744 5759 5785 5780 5794 5798 5807 5807 5798 5787 5771 5783 5773 5773 5775 5772 5769 5768 5766 5765 5765 5765 5763 5761 5760 5760 5758 5757 5755 5752 5751 5751 5751 5751 5751 5751 5750 5749 5748 5748 5748 5748 5750 5750
5795 5791 5765 5750 5752 5752 5760 5784 5788 5798 5806 5807 5798 5801 5785 5768 5778 5776 5782 5779 5773 5771 5768 5767 5766 5765 5764 5763 5762 5760 5759 5757 5756 5753 5751 5751 5751 5750 5750 5750 5749 5748 5748 5747 5747 5747 5749 5749 5749
5785 5772 5767 5751 5757 5779 5788 5792 5796 5796 5804 5808 5801 5780 5787 5790 5783 5787 5786 5782 5776 5773 5770 5767 5767 5765 5765 5762 5761 5759 5758 5756 5754 5752 5750 5750 5750 5750 5751 5750 5749 5748 5747 5747 5747 5748 5749 5746 5747
5786 5767 5751 5751 5766 5793 5796 5804 5806 5796 5800 5794 5800 5778 5778 5786 5789 5786 5784 5781 5776 5773 5770 5769 5767 5765 5764 5761 5760 5759 5758 5755 5752 5751 5750 5750 5750 5751 5751 5750 5750 5749 5747 5746 5747 5748 5746 5745 5744
5777 5774 5752 5751 5773 5793 5798 5811 5813 5801 5797 5789 5786 5782 5773 5787 5784 5786 5784 5781 5779 5774 5771 5769 5768 5765 5763 5761 5759 5759 5757 5753 5752 5752 5752 5752 5752 5752 5752 5751 5750 5749 5748 5747 5745 5745 5745 5745 5745
5781 5771 5768 5770 5778 5779 5794 5814 5806 5803 5796 5790 5799 5772 5773 5779 5786 5789 5785 5782 5778 5774 5771 5770 5768 5765 5764 5762 5759 5758 5756 5754 5755 5754 5753 5754 5754 5753 5752 5752 5751 5751 5749 5748 5747 5746 5746 5746 5746
5789 5786 5776 5789 5787 5787 5805 5813 5817 5812 5796 5806 5806 5774 5770 5787 5793 5791 5786 5782 5778 5775 5772 5770 5768 5766 5765 5762 5760 5759 5758 5758 5757 5756 5756 5755 5756 5756 5754 5754 5754 5752 5750 5749 5747 5749 5749 5747 5747
5801 5780 5782 5793 5800 5802 5813 5808 5817 5824 5806 5802 5807 5802 5799 5800 5798 5790 5782 5779 5776 5774 5774 5771 5769 5767 5766 5764 5762 5761 5761 5761 5760 5760 5759 5759 5758 5757 5758 5757 5758 5757 5755 5752 5750 5752 5753 5751 5750
5790 5769 5790 5824 5824 5812 5822 5815 5819 5806 5797 5796 5798 5800 5801 5799 5794 5787 5782 5777 5774 5774 5774 5775 5771 5769 5767 5765 5765 5764 5765 5765 5765 5764 5763 5762 5761 5761 5761 5761 5760 5761 5759 5756 5754 5754 5756 5756 5754
5795 5781 5806 5825 5831 5834 5820 5813 5825 5806 5793 5808 5797 5796 5797 5795 5792 5788 5785 5783 5780 5780 5779 5778 5775 5772 5770 5769 5768 5767 5768 5769 5770 5768 5768 5765 5765 5766 5765 5764 5763 5763 5762 5759 5759 5758 5757 5757 5755
5793 5810 5816 5832 5841 5834 5820 5823 5817 5826 5824 5822 5816 5813 5803 5794 5790 5788 5785 5786 5783 5782 5784 5782 5779 5776 5773 5772 5771 5771 5772 5774 5774 5773 5771 5769 5769 5770 5768 5767 5768 5766 5765 5763 5763 5761 5760 5758 5757
5812 5815 5823 5837 5847 5844 5839 5826 5818 5820 5834 5822 5814 5808 5800 5795 5794 5795 5795 5792 5790 5787 5787 5785 5783 5781 5779 5777 5776 5775 5775 5777 5777 5777 5775 5774 5773 5773 5772 5773 5771 5767 5766 5763 5765 5764 5762 5761 5760
5829 5826 5828 5835 5842 5846 5835 5831 5831 5826 5834 5816 5811 5806 5803 5799 5797 5796 5794 5792 5793 5794 5793 5792 5789 5787 5785 5783 5781 5780 5779 5780 5781 5782 5781 5777 5777 5777 5775 5774 5774 5771 5770 5767 5766 5766 5764 5763 5763
5830 5815 5831 5841 5849 5840 5840 5815 5816 5835 5832 5816 5810 5809 5810 5805 5803 5798 5802 5799 5801 5801 5801 5797 5795 5792 5789 5788 5786 5784 5784 5783 5783 5784 5784 5783 5783 5781 5779 5779 5777 5775 5773 5770 5767 5766 5764 5764 5763
5815 5817 5799 5839 5842 5844 5837 5788 5822 5840 5828 5812 5810 5810 5809 5810 5808 5806 5809 5808 5807 5805 5803 5802 5801 5796 5794 5792 5791 5788 5789 5787 5787 5787 5786 5785 5782 5782 5781 5780 5778 5776 5773 5771 5768 5766 5763 5763 5762
5795 5783 5799 5817 5839 5833 5823 5795 5825 5837 5829 5812 5816 5814 5813 5814 5815 5814 5815 5814 5812 5811 5809 5805 5804 5800 5800 5798 5795 5794 5794 5790 5790 5790 5789 5786 5784 5784 5782 5780 5779 5777 5773 5771 5768 5765 5763 5760 5759
5776 5789 5803 5804 5835 5831 5818 5811 5824 5830 5822 5816 5819 5820 5819 5820 5824 5823 5823 5821 5819 5817 5815 5811 5808 5806 5804 5801 5797 5797 5796 5794 5793 5790 5790 5790 5788 5785 5784 5782 5781 5777 5773 5770 5767 5764 5763 5760 5759
5799 5796 5795 5822 5837 5817 5822 5821 5828 5830 5822 5818 5822 5822 5822 5826 5836 5834 5827 5825 5820 5819 5816 5813 5810 5809 5805 5800 5795 5793 5791 5794 5793 5793 5793 5792 5790 5789 5787 5783 5780 5777 5774 5771 5768 5764 5760 5759 5759
5797 5792 5800 5817 5832 5817 5816 5826 5831 5830 5831 5833 5828 5827 5829 5828 5832 5834 5833 5831 5826 5823 5821 5818 5814 5812 5808 5806 5803 5800 5798 5797 5798 5796 5794 5794 5793 5790 5787 5783 5781 5777 5773 5770 5766 5763 5757 5756 5757
5793 5790 5804 5800 5820 5822 5812 5802 5812 5823 5825 5832 5837 5843 5841 5837 5835 5837 5836 5834 5834 5829 5827 5825 5821 5816 5812 5809 5804 5799 5798 5798 5795 5795 5796 5798 5796 5793 5789 5784 5782 5778 5776 5771 5768 5763 5758 5751 5751
5769 5817 5817 5808 5794 5772 5812 5761 5800 5816 5814 5824 5835 5840 5845 5844 5845 5845 5843 5839 5838 5837 5836 5832 5827 5822 5818 5814 5808 5802 5799 5793 5797 5798 5798 5798 5797 5794 5790 5786 5782 5780 5777 5770 5767 5763 5759 5753 5746
5799 5812 5809 5808 5793 5785 5792 5770 5797 5822 5812 5818 5835 5849 5851 5853 5850 5847 5850 5850 5848 5843 5838 5836 5832 5827 5824 5819 5815 5809 5802 5802 5802 5801 5799 5797 5795 5793 5790 5785 5782 5779 5776 5771 5767 5761 5756 5753 5746
5819 5802 5801 5801 5789 5748 5786 5787 5782 5805 5829 5838 5847 5855 5860 5857 5857 5857 5861 5860 5852 5850 5843 5837 5832 5829 5828 5823 5819 5814 5808 5803 5799 5799 5797 5796 5795 5793 5790 5786 5782 5778 5774 5769 5766 5760 5756 5752 5747
5800 5773 5741 5742 5745 5745 5791 5775 5807 5835 5851 5859 5858 5862 5865 5868 5865 5860 5858 5855 5854 5850 5846 5839 5832 5827 5827 5825 5821 5817 5812 5808 5804 5801 5798 5796 5796 5791 5790 5786 5780 5778 5775 5771 5766 5761 5754 5749 5744
5784 5780 5749 5717 5723 5746 5788 5758 5809 5853 5867 5874 5882 5879 5873 5868 5872 5872 5868 5868 5863 5857 5851 5844 5835 5830 5827 5824 5821 5818 5814 5811 5808 5805 5802 5800 5799 5796 5794 5788 5784 5781 5776 5771 5764 5758 5753 5747 5741
5791 5765 5795 5755 5761 5743 5771 5799 5832 5850 5855 5866 5870 5871 5872 5874 5875 5883 5880 5875 5871 5863 5858 5853 5843 5836 5831 5827 5822 5819 5814 5812 5809 5806 5805 5803 5801 5799 5795 5791 5786 5781 5777 5771 5764 5757 5750 5745 5741
5797 5805 5766 5747 5735 5732 5758 5777 5799 5830 5846 5858 5867 5871 5876 5881 5886 5893 5886 5883 5878 5874 5866 5859 5853 5846 5839 5832 5827 5821 5816 5813 5811 5808 5805 5804 5802 5800 5796 5791 5786 5782 5776 5771 5765 5759 5754 5749 5744
5791 5781 5777 5779 5767 5750 5729 5781 5828 5837 5847 5849 5867 5883 5887 5890 5893 5893 5894 5892 5888 5880 5868 5862 5853 5847 5841 5837 5831 5824 5817 5812 5811 5811 5808 5807 5804 5802 5797 5792 5787 5780 5776 5773 5767 5762 5757 5747 5742
5806 5791 5779 5763 5746 5763 5785 5806 5856 5852 5857 5860 5869 5880 5892 5900 5893 5894 5899 5891 5883 5877 5871 5867 5858 5850 5847 5842 5834 5828 5821 5814 5812 5813 5812 5810 5807 5804 5801 5796 5789 5783 5777 5773 5767 5761 5756 5751 5743